Stations météo

réclame
Mon MeteoGroup
Ueckermünde, Allemagne (10193): Température de l'air & dewpoint: 15.09.2018 10:00:00 - 21.09.2018 10:00:00 (CEST)Ueckermünde, Allemagne (10193): Température de l'air 5cm & Température de l'air -5cm: 15.09.2018 10:00:00 - 21.09.2018 10:00:00 (CEST)Ueckermünde, Allemagne (10193): Température de l'air -20cm & Température de l'air -100cm: 15.09.2018 10:00:00 - 21.09.2018 10:00:00 (CEST)Ueckermünde, Allemagne (10193): Vitesse du vent & gusts: 15.09.2018 10:00:00 - 21.09.2018 10:00:00 (CEST)Ueckermünde, Allemagne (10193): Direction du vent: 15.09.2018 10:00:00 - 21.09.2018 10:00:00 (CEST)Ueckermünde, Allemagne (10193): reduced air pressure: 15.09.2018 10:00:00 - 21.09.2018 10:00:00 (CEST)Ueckermünde, Allemagne (10193): visibility: 15.09.2018 10:00:00 - 21.09.2018 10:00:00 (CEST)Ueckermünde, Allemagne (10193): Ensoleillement: 15.09.2018 10:00:00 - 21.09.2018 10:00:00 (CEST)Ueckermünde, Allemagne (10193): Quantités de précipitations: 15.09.2018 10:00:00 - 21.09.2018 10:00:00 (CEST)
Date & Time tt [°C] td [°C] tt 5cm [°C] tt -5cm [°C] tt -20cm [°C] tt -100cm [°C] ff [km/h] ff [knt] fx [km/h] fx [knt] dd ppp [hPa] vv [km] sd [min] rr [mm]
21.09.2018 10:00:00 20,7 14,0 21,3 18,0 18,0 17,5 21 11 31 17 SSE 1006,0 27 55 0,0
21.09.2018 09:00:00 18,3 12,9 18,2 16,8 18,1 17,5 15 8 26 14 S 1007,0 25 55 0,0
21.09.2018 08:00:00 16,9 12,4 16,4 16,0 18,3 17,5 16 8 26 14 S 1007,4 30 26 0,0
21.09.2018 07:00:00 15,1 11,8 13,5 15,9 18,4 17,5 10 6 18 10 S 1008,1 28 0 0,0
21.09.2018 06:00:00 15,9 12,2 14,7 16,1 18,6 17,5 14 8 21 11 S 1008,7 27 0 0,0
21.09.2018 05:00:00 15,6 12,4 14,5 16,2 18,7 17,4 13 7 21 11 S 1009,4 29 0 0,0
21.09.2018 04:00:00 15,7 12,5 14,3 16,3 18,9 17,4 10 6 17 9 S 1010,2 32 0 0,0
21.09.2018 03:00:00 15,5 12,5 13,6 16,5 19,2 17,4 9 5 18 10 S 1010,9 31 0 0,0
21.09.2018 02:00:00 15,7 12,5 13,4 16,5 19,4 17,4 10 6 13 7 S 1011,6 33 0 0,0
21.09.2018 01:00:00 15,5 12,6 10,6 17,0 19,7 17,4 9 5 11 6 S 1012,2 35 0 0,0
21.09.2018 00:00:00 15,2 12,6 10,7 17,5 19,9 17,4 6 3 10 5 S 1012,8 31 0 0,0
20.09.2018 23:00:00 16,4 12,9 11,7 18,2 20,2 17,4 8 4 9 5 S 1013,1 44 0 0,0
20.09.2018 22:00:00 15,7 12,7 12,1 19,0 20,4 17,4 6 3 9 5 SSE 1013,3 34 0 0,0
20.09.2018 21:00:00 17,0 13,3 12,9 20,0 20,6 17,4 4 2 6 3 SSE 1013,6 37 0 0,0
20.09.2018 20:00:00 19,5 14,0 15,7 21,2 20,7 17,4 3 2 5 3 ESE 1013,8 39 0 0,0
20.09.2018 19:00:00 21,8 14,1 19,0 22,5 20,7 17,4 3 1 9 5 SE 1014,0 50 0 0,0
20.09.2018 18:00:00 24,5 13,1 23,8 23,6 20,6 17,4 8 4 24 13 SW 1014,6 55 1 0,0
20.09.2018 17:00:00 25,9 12,7 26,8 24,6 20,3 17,4 16 8 29 16 SW 1014,8 57 38 0,0
20.09.2018 16:00:00 25,6 12,5 27,2 25,3 20,0 17,4 18 10 36 20 SW 1015,2 37 55 0,0
20.09.2018 15:00:00 24,9 12,7 26,1 25,0 19,6 17,4 22 12 44 24 WSW 1015,4 28 46 0,0
20.09.2018 14:00:00 25,5 13,0 29,1 25,0 19,2 17,4 22 12 36 20 SW 1015,9 31 54 0,0
20.09.2018 13:00:00 24,9 12,8 29,5 23,9 18,8 17,4 21 12 35 19 WSW 1016,2 18 60 0,0
20.09.2018 12:00:00 23,4 12,9 27,7 22,2 18,5 17,4 21 12 37 20 SW 1016,7 22 60 0,0
20.09.2018 11:00:00 22,4 13,6 25,8 20,3 18,3 17,4 20 11 31 17 SW 1017,2 27 52 0,0
20.09.2018 10:00:00 21,3 13,9 25,1 18,8 18,2 17,4 13 7 18 10 SW 1017,3 15 49 0,0
20.09.2018 09:00:00 17,9 13,3 18,9 17,1 18,3 17,4 9 5 13 7 S 1017,5 24 5 0,0
20.09.2018 08:00:00 16,3 13,1 16,1 16,3 18,5 17,4 6 3 12 6 SSW 1017,1 22 0 0,0
20.09.2018 07:00:00 14,5 12,4 12,2 16,1 18,6 17,4 8 5 12 6 S 1016,8 19 0 0,0
20.09.2018 06:00:00 14,7 12,6 11,7 16,4 18,8 17,4 8 4 9 5 S 1016,5 20 0 0,0
20.09.2018 05:00:00 14,9 12,6 13,2 16,7 19,0 17,4 5 3 9 5 SSW 1016,5 23 0 0,0
20.09.2018 04:00:00 15,3 12,7 13,9 16,9 19,2 17,4 4 2 10 5 SSW 1016,3 25 0 0,0
20.09.2018 03:00:00 15,9 12,8 12,7 17,4 19,4 17,4 7 4 14 8 SSW 1016,1 23 0 0,0
20.09.2018 02:00:00 17,5 13,2 15,9 17,8 19,6 17,4 11 6 14 8 S 1015,7 32 0 0,0
20.09.2018 01:00:00 17,4 13,2 15,2 18,1 19,8 17,4 10 6 13 7 S 1015,7 29 0 0,0
20.09.2018 00:00:00 17,4 13,3 14,2 18,6 20,0 17,4 9 5 13 7 S 1015,9 29 0 0,0
19.09.2018 23:00:00 19,1 13,7 17,0 19,2 20,3 17,4 10 5 16 9 SSW 1015,9 33 0 0,0
19.09.2018 22:00:00 20,6 13,7 18,8 19,7 20,5 17,4 11 6 18 10 S 1015,7 38 0 0,0
19.09.2018 21:00:00 20,6 13,6 17,8 20,3 20,7 17,4 9 5 13 7 SSE 1015,7 39 0 0,0
19.09.2018 20:00:00 21,2 13,7 15,6 21,6 20,8 17,4 6 4 13 7 SSE 1015,7 43 0 0,0
19.09.2018 19:00:00 23,8 13,3 21,9 23,2 20,7 17,4 8 4 17 9 S 1015,9 52 34 0,0
19.09.2018 18:00:00 26,1 12,0 25,8 24,6 20,5 17,4 12 6 22 12 SSW 1016,1 39 60 0,0
19.09.2018 17:00:00 26,5 12,1 27,5 25,7 20,2 17,4 11 6 26 14 WSW 1016,0 38 60 0,0
19.09.2018 16:00:00 26,7 12,5 29,7 26,1 19,7 17,4 16 9 31 17 WSW 1016,3 19 60 0,0
19.09.2018 15:00:00 27,0 13,7 30,8 26,0 19,2 17,4 16 9 24 13 SW 1016,8 23 60 0,0
19.09.2018 14:00:00 25,2 13,7 30,2 25,1 18,7 17,4 15 8 25 14 SW 1017,0 30 60 0,0
19.09.2018 13:00:00 23,3 14,1 28,2 23,9 18,3 17,4 16 8 27 14 WSW 1017,4 23 60 0,0
19.09.2018 12:00:00 22,0 13,9 27,9 22,1 17,9 17,3 14 7 24 13 WSW 1017,7 28 60 0,0
19.09.2018 11:00:00 20,4 13,6 24,7 20,2 17,7 17,3 15 8 24 13 WSW 1017,9 31 57 0,0
19.09.2018 10:00:00 19,4 13,9 22,5 18,5 17,6 17,3 14 8 23 13 W 1017,7 27 60 0,0
19.09.2018 09:00:00 17,2 14,0 19,3 16,3 17,7 17,3 10 5 14 8 SW 1017,3 21 60 0,0
19.09.2018 08:00:00 14,9 13,2 14,3 14,9 17,9 17,3 7 4 10 6 SW 1016,8 20 28 0,0
19.09.2018 07:00:00 12,2 11,6 8,6 14,9 18,1 17,3 5 3 8 5 SSW 1016,2 12 0 0,0
19.09.2018 06:00:00 12,8 11,6 8,5 15,3 18,3 17,3 5 3 9 5 SSW 1015,8 19 0 0,0
19.09.2018 05:00:00 13,3 11,9 9,6 15,7 18,5 17,3 4 2 6 4 SSW 1015,6 23 0 0,0
19.09.2018 04:00:00 13,5 11,7 9,6 16,2 18,7 17,3 4 2 5 3 SSW 1015,1 26 0 0,0
19.09.2018 03:00:00 17,0 12,8 11,9 16,9 18,9 17,3 3 2 14 7 NW 1014,6 40 0 0,0
19.09.2018 02:00:00 18,7 11,1 15,9 17,3 19,1 17,3 8 4 27 15 WNW 1014,1 44 0 0,0
19.09.2018 01:00:00 18,6 11,0 17,1 17,8 19,3 17,3 15 8 21 11 S 1012,7 41 0 0,0
19.09.2018 00:00:00 19,9 11,1 18,2 18,0 19,5 17,3 15 8 22 12 S 1012,6 43 0 0,0
18.09.2018 23:00:00 19,8 11,5 17,7 18,3 19,7 17,3 13 7 17 9 S 1012,6 43 0 0,0
18.09.2018 22:00:00 19,1 11,6 15,6 18,9 20,0 17,4 9 5 15 8 S 1012,8 41 0 0,0
18.09.2018 21:00:00 21,2 11,9 18,4 19,9 20,1 17,4 11 6 15 8 SSE 1012,6 39 0 0,0
18.09.2018 20:00:00 22,6 11,4 18,9 21,3 20,2 17,4 10 5 15 8 SSE 1012,5 44 0 0,0
18.09.2018 19:00:00 25,9 11,4 23,8 23,0 20,1 17,4 11 6 22 12 S 1012,4 49 59 0,0
18.09.2018 18:00:00 28,2 11,0 27,6 24,2 19,8 17,4 19 11 36 19 S 1012,5 30 60 0,0
18.09.2018 17:00:00 28,9 10,5 29,4 25,1 19,5 17,4 26 14 41 22 S 1012,5 17 60 0,0
18.09.2018 16:00:00 28,8 11,5 30,2 25,5 19,0 17,4 23 13 39 21 S 1013,0 15 60 0,0
18.09.2018 15:00:00 28,4 10,7 30,7 25,3 18,4 17,4 25 14 36 19 S 1013,7 16 60 0,0
18.09.2018 14:00:00 28,5 11,0 32,1 24,6 17,9 17,4 17 9 32 17 S 1014,3 17 60 0,0
18.09.2018 13:00:00 26,8 11,5 30,2 23,1 17,4 17,4 17 9 28 15 S 1015,1 26 60 0,0
18.09.2018 12:00:00 25,1 11,0 28,4 21,2 17,0 17,4 15 8 26 14 S 1015,7 25 60 0,0
18.09.2018 11:00:00 22,7 10,6 25,2 18,7 16,8 17,4 15 8 21 11 S 1016,2 33 60 0,0
18.09.2018 10:00:00 19,6 10,1 21,0 16,4 16,8 17,4 12 6 18 10 S 1016,5 60 60 0,0
18.09.2018 09:00:00 15,6 9,2 16,5 14,6 16,9 17,4 10 6 16 9 S 1016,6 29 40 0,0
18.09.2018 08:00:00 12,5 8,8 11,7 13,7 17,1 17,4 9 5 13 7 S 1016,7 19 2 0,0
18.09.2018 07:00:00 11,5 8,5 8,9 13,6 17,3 17,4 8 4 11 6 S 1016,6 30 0 0,0
18.09.2018 06:00:00 11,5 8,4 9,3 13,9 17,5 17,4 8 4 12 7 S 1016,6 37 0 0,0
18.09.2018 05:00:00 12,1 8,4 9,3 14,3 17,7 17,4 8 4 11 6 S 1016,8 43 0 0,0
18.09.2018 04:00:00 12,6 8,4 10,2 14,7 17,9 17,4 9 5 11 6 S 1017,0 56 0 0,0
18.09.2018 03:00:00 12,9 8,4 9,7 15,0 18,1 17,4 9 5 12 6 S 1017,2 56 0 0,0
18.09.2018 02:00:00 13,5 8,5 10,7 15,3 18,4 17,4 8 4 10 5 S 1017,5 63 0 0,0
18.09.2018 01:00:00 12,0 8,6 8,9 15,7 18,7 17,4 8 4 9 5 S 1017,6 59 0 0,0
18.09.2018 00:00:00 12,3 9,3 8,6 16,1 18,9 17,4 5 3 11 6 SSW 1017,8 53 0 0,0
17.09.2018 23:00:00 12,7 9,6 8,7 16,7 19,2 17,4 6 4 8 5 S 1017,9 45 0 0,0
17.09.2018 22:00:00 13,3 10,1 9,8 17,6 19,5 17,4 6 3 8 4 S 1018,1 43 0 0,0
17.09.2018 21:00:00 14,8 10,9 10,3 18,6 19,7 17,4 4 2 6 3 SSW 1018,2 37 0 0,0
17.09.2018 20:00:00 16,5 10,8 11,7 20,0 19,8 17,4 3 2 5 3 S 1018,1 22 0 0,0
17.09.2018 19:00:00 20,8 10,5 16,4 21,8 19,8 17,4 0 0 15 8 N 1017,8 70 7 0,0
17.09.2018 18:00:00 24,5 9,2 24,1 23,3 19,6 17,4 9 5 19 11 WSW 1017,9 70 60 0,0
17.09.2018 17:00:00 25,2 8,9 26,3 24,2 19,2 17,4 11 6 23 12 WSW 1017,9 62 60 0,0
17.09.2018 16:00:00 25,1 8,3 27,4 24,6 18,8 17,4 16 9 31 17 WSW 1018,1 46 60 0,0
17.09.2018 15:00:00 25,0 8,7 28,5 24,5 18,3 17,4 19 10 33 18 SW 1018,5 21 60 0,0
17.09.2018 14:00:00 24,7 9,5 28,2 24,0 17,8 17,5 18 10 29 16 WSW 1018,9 25 60 0,0
17.09.2018 13:00:00 24,4 9,5 29,5 22,8 17,4 17,5 18 10 30 16 WSW 1019,3 25 60 0,0
17.09.2018 12:00:00 23,4 9,9 27,7 21,0 17,0 17,5 13 7 22 12 SW 1019,4 51 60 0,0
17.09.2018 11:00:00 21,0 10,6 23,7 18,8 16,8 17,5 11 6 23 12 SSW 1019,5 51 56 0,0
17.09.2018 10:00:00 17,9 10,2 20,0 17,1 16,8 17,5 11 6 18 10 SSW 1019,6 35 60 0,0
17.09.2018 09:00:00 14,8 9,7 16,4 15,2 16,8 17,5 11 6 17 9 S 1019,8 30 59 0,0
17.09.2018 08:00:00 12,3 9,0 11,7 14,2 17,0 17,5 13 7 17 9 S 1019,5 32 8 0,0
17.09.2018 07:00:00 11,8 8,8 10,5 14,3 17,1 17,5 12 7 19 10 S 1019,3 38 0 0,0
17.09.2018 06:00:00 12,8 8,9 12,0 14,7 17,3 17,5 14 8 21 12 S 1019,0 41 0 0,0
17.09.2018 05:00:00 12,2 9,0 11,2 14,8 17,4 17,5 11 6 20 11 SSW 1019,5 39 0 0,0
17.09.2018 04:00:00 13,2 9,2 12,3 15,2 17,6 17,5 12 7 18 10 SSW 1019,6 48 0 0,0
17.09.2018 03:00:00 13,3 9,4 12,7 15,3 17,7 17,5 8 5 13 7 SSW 1019,8 54 0 0,0
17.09.2018 02:00:00 12,6 9,0 11,3 15,4 17,9 17,5 9 5 14 7 S 1020,2 56 0 0,0
17.09.2018 01:00:00 14,3 9,3 13,4 15,6 18,1 17,5 11 6 16 9 S 1020,2 70 0 0,0
17.09.2018 00:00:00 13,0 8,9 10,8 15,8 18,4 17,5 8 4 13 7 S 1020,8 57 0 0,0
16.09.2018 23:00:00 14,0 9,2 12,7 16,2 18,6 17,5 10 6 13 7 S 1021,0 67 0 0,0
16.09.2018 22:00:00 14,0 9,2 9,9 17,0 18,8 17,5 7 4 11 6 SSE 1021,4 70 0 0,0
16.09.2018 21:00:00 15,8 9,5 13,6 17,9 19,0 17,5 8 5 10 6 SSE 1021,3 70 0 0,0
16.09.2018 20:00:00 16,3 9,5 12,4 18,9 19,1 17,6 6 3 10 5 S 1021,4 70 0 0,0
16.09.2018 19:00:00 18,6 9,5 17,8 20,2 19,0 17,6 7 4 16 9 S 1021,2 70 5 0,0
16.09.2018 18:00:00 19,6 8,9 19,1 21,6 18,9 17,6 12 7 18 10 S 1021,6 70 14 0,0
16.09.2018 17:00:00 20,2 9,1 21,5 22,5 18,6 17,6 9 5 17 9 SSW 1022,0 70 33 0,0
16.09.2018 16:00:00 20,3 9,1 22,5 23,6 18,2 17,6 13 7 24 13 SW 1022,5 44 55 0,0
16.09.2018 15:00:00 19,6 9,3 23,3 23,1 17,7 17,6 13 7 29 16 WSW 1023,2 67 45 0,0
16.09.2018 14:00:00 19,5 9,3 24,6 22,1 17,3 17,6 16 9 26 14 SW 1023,7 37 56 0,0
16.09.2018 13:00:00 18,2 9,2 21,7 21,2 16,9 17,6 13 7 23 13 WSW 1024,0 70 52 0,0
16.09.2018 12:00:00 17,6 8,5 22,8 20,0 16,5 17,6 9 5 23 12 W 1024,5 43 60 0,0
16.09.2018 11:00:00 16,7 8,7 21,4 18,0 16,3 17,6 15 8 23 12 WSW 1024,9 52 60 0,0
16.09.2018 10:00:00 14,5 10,0 17,7 15,9 16,2 17,6 11 6 19 11 SW 1025,1 37 60 0,0
16.09.2018 09:00:00 12,4 10,5 14,2 13,9 16,3 17,6 9 5 14 7 SW 1024,8 27 60 0,0
16.09.2018 08:00:00 9,8 9,5 10,2 12,4 16,5 17,6 6 4 10 5 SSW 1024,5 21 37 0,0
16.09.2018 07:00:00 8,3 8,3 4,6 12,5 16,8 17,6 6 3 13 7 SSW 1024,1 10 0 0,0
16.09.2018 06:00:00 9,4 9,3 8,0 12,9 17,0 17,6 8 4 12 7 SSW 1023,9 25 0 0,0
16.09.2018 05:00:00 9,8 9,6 8,4 13,3 17,2 17,6 9 5 14 8 SSW 1023,9 28 0 0,0
16.09.2018 04:00:00 10,2 9,8 8,7 13,6 17,4 17,6 8 5 14 8 SW 1023,7 44 0 0,0
16.09.2018 03:00:00 10,5 10,0 9,2 14,0 17,6 17,6 9 5 16 9 SSW 1023,6 44 0 0,0
16.09.2018 02:00:00 11,5 9,8 9,8 14,5 17,8 17,6 11 6 18 10 WSW 1023,5 70 0 0,0
16.09.2018 01:00:00 11,3 9,8 9,3 15,0 18,1 17,6 9 5 16 8 WSW 1023,5 66 0 0,0
16.09.2018 00:00:00 12,7 10,5 11,6 15,7 18,2 17,7 9 5 18 10 WSW 1023,2 70 0 0,0
15.09.2018 23:00:00 12,6 10,5 11,0 16,2 18,4 17,7 10 5 17 9 SW 1022,9 70 0 0,0
15.09.2018 22:00:00 13,7 11,0 12,8 16,7 18,6 17,7 11 6 16 9 WSW 1022,6 70 0 0,0
15.09.2018 21:00:00 14,1 10,9 13,6 17,3 18,8 17,7 8 5 17 9 WSW 1022,4 70 0 0,0
15.09.2018 20:00:00 14,7 10,2 14,0 17,7 18,9 17,7 9 5 16 9 WSW 1021,8 70 0 0,0
15.09.2018 19:00:00 15,4 10,1 14,7 18,5 19,0 17,7 11 6 22 12 WSW 1021,2 70 0 0,0
15.09.2018 18:00:00 16,5 10,5 16,3 19,6 18,9 17,7 13 7 30 16 WSW 1020,8 70 0 0,0
15.09.2018 17:00:00 18,2 8,8 18,9 21,0 18,8 17,7 16 9 33 18 WNW 1020,2 70 1 0,0
15.09.2018 16:00:00 19,1 9,2 20,3 21,4 18,6 17,7 18 10 34 19 W 1019,8 54 1 0,0
15.09.2018 15:00:00 19,7 9,7 22,0 21,5 18,3 17,7 14 7 33 18 W 1019,5 70 19 0,0
15.09.2018 14:00:00 19,5 8,2 22,5 21,6 18,0 17,7 21 11 37 20 W 1019,2 36 44 0,0
15.09.2018 13:00:00 19,7 9,9 22,6 20,7 17,7 17,7 21 11 40 22 WSW 1019,0 39 21 0,0
15.09.2018 12:00:00 19,3 10,5 24,7 20,5 17,4 17,7 23 13 38 21 WSW 1019,0 32 59 0,0
15.09.2018 11:00:00 17,3 10,0 21,5 18,6 17,3 17,7 21 11 32 18 W 1018,8 30 60 0,0
15.09.2018 10:00:00 15,9 9,5 19,0 16,5 17,3 17,7 19 10 34 18 WSW 1018,5 29 60 0,0

tt = Température de l'air
td = dewpoint
tt 5cm = Température de l'air 5cm
tt -5cm = Température de l'air -5cm
tt -20cm = Température de l'air -20cm
tt -100cm = Température de l'air -100cm
ff = Vitesse du vent
fx = gusts
dd = Direction du vent
ppp = reduced air pressure
vv = visibility
sd = Ensoleillement
rr = Quantités de précipitations

stations d'obs. à proximité